Regional Weather Roundup
Issued by NWS

Home | Current Version | Previous Version | Text Only | Print | Product List | Glossary Off
Versions: 1 2 3 4 5 6 7 8 9 10 11 12 13 14 15 16 17 18 19 20 21 22 23 24 25 26 27 28 29 30 31 32 33 34 35 36 37 38 39 40 41 42 43 44 45 46 47 48 49 50

463
ASUS43 KIND 051959
RWRIN

WEATHER ROUNDUP FOR INDIANA
NATIONAL WEATHER SERVICE INDIANAPOLIS IN
300 PM EST FRI FEB 05 2016

NOTE: "FAIR" INDICATES FEW OR NO CLOUDS BELOW 12,000 FEET WITH NO
SIGNIFICANT WEATHER AND/OR OBSTRUCTIONS TO VISIBILITY.

* - STATION DOES NOT REPORT WEATHER SUCH AS PRECIPITATION OR FOG.

+ - STATION NOT QUALITY CONTROLLED BY THE NATIONAL WEATHER SERVICE.
    USE DATA WITH CAUTION...ESPECIALLY DEWPOINT AND RELATIVE
    HUMIDITY OBSERVATIONS.

INZ001>003-010>013-019-020-052100-
NORTHWEST INDIANA

CITY           SKY/WX    TMP DP  RH WIND       PRES   REMARKS
GARY /AIRPORT/ CLOUDY    32  23  69 N9        30.35F WCI  24
MONTICELLO +   CLOUDY    31  20  62 W8        30.33F WCI  24
RENSSELAER +   CLOUDY    32  25  74 W6        30.34S WCI  26

$$

LMZ046-743>745-052100-
SOUTHERN LAKE MICHIGAN

STATION/POSITION TIME  TEMP    WIND        PRES    WAVE
                       AIR SEA DIR/SP/G            HT
                 (UTC) (F)     (DEG/KT/KT) (MB)    (FT)
BURNS HARBOR     1900   29     340/ 11/ 14 1027.8S
MICHIGAN CITY    1900   30     280/ 16/ 17   N/A

$$

INZ004-005-014>016-021>024-052100-
NORTH CENTRAL INDIANA

CITY           SKY/WX    TMP DP  RH WIND       PRES   REMARKS
ELKHART          N/A     32  25  74 SW6       30.30S WCI  26
GOSHEN         CLOUDY    33  26  75 W12       30.30S WCI  24
SOUTH BEND     PTSUNNY   32  25  75 SW9       30.30F WCI  24

$$

INZ006>009-017-018-025>027-052100-
NORTHEAST INDIANA

CITY           SKY/WX    TMP DP  RH WIND       PRES   REMARKS
ANGOLA *+      CLOUDY    36  21  55 W7        30.27S
FORT WAYNE     PTSUNNY   37  26  64 SW15      30.31S

$$

INZ028-029-035-036-043>045-051>053-052100-
WEST CENTRAL INDIANA

CITY           SKY/WX    TMP DP  RH WIND       PRES   REMARKS
GREENCASTLE +  CLOUDY    36  19  51 W7G16     30.33F
LAFAYETTE      CLOUDY    31  21  66 W7        30.35F WCI  24
TERRE HAUTE    CLOUDY    34  24  67 NW8       30.37F WCI  27

$$

INZ030>032-037>040-046>048-054>057-064-065-052100-
CENTRAL INDIANA

CITY           SKY/WX    TMP DP  RH WIND       PRES   REMARKS
ANDERSON       MOSUNNY   39  25  56 SW12      30.31
COLUMBUS       MOSUNNY   43  25  49 SW13G21   30.33F
INDIANAPOLIS   PTSUNNY   40  22  48 W13       30.31F
-EAGLE CREEK   MOSUNNY   39  23  52 NW8       30.31F
KOKOMO *+        N/A     34  25  69 W15       30.32F WCI  24
MT COMFORT *+  SUNNY     41  23  48 W12       30.31F
SHELBYVILLE    SUNNY     44  24  45 SW13      30.31F

$$

INZ033-034-041-042-049-050-058-059-052100-
EAST CENTRAL INDIANA

CITY           SKY/WX    TMP DP  RH WIND       PRES   REMARKS
MUNCIE         MOSUNNY   41  23  48 SW14G20   30.30S

$$

INZ060-061-067>069-081>083-085>088-052100-
SOUTHWEST INDIANA

CITY           SKY/WX    TMP DP  RH WIND       PRES   REMARKS
EVANSVILLE     SUNNY     48  23  37 W14       30.38F
HUNTINGBURG *+ CLOUDY    45  27  49 SW9G17    30.37S

$$

INZ062-063-066-070>080-084-089>092-052100-
SOUTH CENTRAL AND SOUTHEAST INDIANA

CITY           SKY/WX    TMP DP  RH WIND       PRES   REMARKS
BLOOMINGTON    CLOUDY    42  24  49 W12G18    30.33F
MADISON *+     SUNNY     43  19  39 S7G16     30.36F
SEYMOUR +      MOSUNNY   46  25  42 SW16      30.34F

$$





USA.gov is the U.S. government's official web portal to all federal, state and local government web resources and services.